Find Starlink 32426

NORAD ID: 61681 Int'l Des: 2024-193 Owner: SPXS Country: US Constellation: starlink operational
LEOCIRCULAR

Live-Position

3D-Globus wird geladen...

Über Starlink 32426

Beschreibung wird geladen...

Nächste Überflüge

Passes for default location (London). Set your location on the main map for personalized predictions.

Höhenverlauf

Loading altitude history...

Zweizeiliger Elementsatz

1 61681U 24193W 26124.60769272 .00000000 00000-0 12142-4 0 9999
2 61681 53.1596 191.5718 0001160 74.7020 285.4109 15.30188181 85089
Epoch: 4. Mai 2026 • Age: 11 hours

Aktueller Status

Höhe 476.0 km
Geschwindigkeit 7.63 km/s
Subsatellitenpunkt -0.09°S, 56.92°W
Startdatum 26. Okt. 2024
Alter 1.5 years
Typ internet

Technische Details

Klassifizierung Payload
Masse 730.00 kg
Trockenmasse 700.00 kg
Gesamtmasse 730.00 kg
Länge 0.30 m
Durchmesser 4.10 m
Spannweite 29.00 m
Form Box + pan
Hersteller SPXS
Bus-Typ Starlink V2M
Phasenstatus In Orbit
Besitzer/Staat SPXS/US

Most Searched